Location: Lac Lasalle
(46.0398°N, 74.1576°W)
Time: 03:17:07
(UTC-04:00)

ISS - Visible Passes

Search period start: 23 October 2019 00:00
Search period end: 02 November 2019 00:00
Orbit: 411 x 421 km, 51.6° (Epoch: 23 October)

Date Brightness Start Highest point End Pass type
(mag) Time Alt. Az. Time Alt. Az. Time Alt. Az.
23 Oct -0.5 06:15:20 10° SSE 06:16:25 11° SE 06:17:31 10° ESE visible
25 Oct -1.7 06:12:46 10° SSW 06:15:40 27° SE 06:18:34 10° E visible
26 Oct -1.2 05:25:39 13° SSE 05:27:16 17° SE 05:29:32 10° E visible
27 Oct -3.4 06:12:37 17° SW 06:15:03 64° SSE 06:18:24 10° ENE visible
28 Oct -2.7 05:26:28 40° SSE 05:26:31 40° SE 05:29:42 10° ENE visible
28 Oct -3.3 07:00:00 10° W 07:03:16 45° NNW 07:06:31 10° ENE visible
29 Oct -0.5 04:40:10 14° E 04:40:10 14° E 04:40:52 10° E visible
29 Oct -3.7 06:13:05 29° W 06:14:35 62° NNW 06:17:55 10° ENE visible
30 Oct -3.0 05:26:41 52° ENE 05:26:41 52° ENE 05:29:19 10° ENE visible
30 Oct -2.7 06:59:52 10° WNW 07:02:57 33° N 07:06:03 10° ENE visible
31 Oct -0.4 04:40:11 13° ENE 04:40:11 13° ENE 04:40:40 10° ENE visible
31 Oct -3.0 06:13:05 28° WNW 06:14:12 38° NNW 06:17:23 10° ENE visible
01 Nov -2.3 05:26:31 33° NNE 05:26:31 33° NNE 05:28:44 10° ENE visible
01 Nov -2.5 06:59:38 10° WNW 07:02:40 30° N 07:05:42 10° ENE visible
